Regional Weather Roundup
Issued by NWS New Orleans/Baton Rouge, LA

Home | Current Version | Previous Version | Graphics & Text | Print | Product List | Glossary On
Versions: 1 2 3 4 5 6 7 8 9 10 11 12 13 14 15 16 17 18 19 20 21 22 23 24 25 26 27 28 29 30 31 32 33 34 35 36 37 38 39 40 41 42 43 44 45 46 47 48 49 50
866
ASUS44 KLIX 282011
RWRLIX
NEW ORLEANS REGIONAL WEATHER ROUNDUP
NATIONAL WEATHER SERVICE NEW ORLEANS LA
300 PM CDT SAT MAR 28 2015

NOTE: "FAIR" INDICATES FEW OR NO CLOUDS BELOW 12,000 FEET WITH NO
      SIGNIFICANT WEATHER AND/OR OBSTRUCTIONS TO VISIBILITY.
      SKY/WX - SKY CONDITION AND SIGNIFICANT WEATHER.
      TMP - AIR TEMPERATURE.     DP    - DEWPOINT TEMPERATURE.
      RH  - RELATIVE HUMIDITY.   PRES  - PRESSURE.
      HI  - HEAT INDEX.          WCI   - WIND CHILL INDEX.

*  THESE STATIONS ARE NOT NWS OR FAA STATIONS AND ARE NOT UNDER
   NWS QUALITY CONTROL.

LAZ038-040-048-061>063-065>067-069-282100-
SOUTHEAST LOUISIANA

CITY           SKY/WX    TMP DP  RH WIND       PRES   REMARKS
N.O. AUDUBON     N/A    N/A N/A N/A MISG        N/A
N.O. INTL ARPT MOSUNNY   68  43  40 SW3       30.19F
N.O. LAKEFRONT SUNNY     67  42  40 E10       30.20F
SLIDELL        SUNNY     65  41  41 E5        30.19F
BATON ROUGE    SUNNY     72  44  36 CALM      30.16F
BOOTHVILLE     SUNNY     63  45  51 E10       30.21F
BELLE CHASSE   MOSUNNY   66  44  45 VRB6      30.19F
BOGALUSA*        N/A     67  36  31 S3        30.20F
GALLIANO*      CLEAR     68  47  45 CALM      30.20S
NEW ROADS*       N/A     69  45  41 SE8       30.16F
GONZALES*        N/A     70  41  34 CALM      30.17F
HAMMOND*       SUNNY     68  34  28 CALM      30.20F
HOUMA*         SUNNY     70  50  49 S5        30.18F
PORT FOURCHON* CLEAR     63  48  59 E10       30.22F

$$

MSZ070-080>082-282100-
SOUTHERN MISSISSIPPI

CITY           SKY/WX    TMP DP  RH WIND       PRES   REMARKS
MCCOMB         SUNNY     65  41  41 CALM      30.17F
GULFPORT       SUNNY     60  39  45 SE8       30.20F
BILOXI         SUNNY     61  40  46 SW8       30.20F
PASCAGOULA     SUNNY     62  43  49 SW10G16   30.21F
STENNIS ARPT*  SUNNY     64  34  32 S7        30.20F

$$

COASTAL OBSERVATIONS
LAKE AND NEARSHORE STATIONS

STATION/POSITION TIME  TEMP    WIND        PRES    WAVE
                       AIR SEA DIR/SP/G            HT/PER
                 (UTC) (F)     (DEG/KT/KT) (MB)    (FT/S)
PASCAGOULA       1900   58     190/  9/ 12 1023.2
WAVELAND YACHT   1900   56 65  140/  8/ 10 1023.3
GRAND ISLE       1900   63 66  100/  7/ 13 1022.6
SOUTHWEST PASS   1900   67 53   80/ 12/ 13 1023.5
NEW CANAL        1900   63      80/  5/  8 1023.1
SHELL BEACH      1900   60 67   70/ 10/ 13 1022.9

OFFSHORE STATIONS

STATION/POSITION TIME  TEMP    WIND        PRES    WAVE
                       AIR SEA DIR/SP/G            HT/PER
                 (UTC) (F)     (DEG/KT/KT) (MB)    (FT/S)
64 S DAUPHIN ISL 1950   58 73   60/  6/  8 1023.5    2/ 5

$$




USA.gov is the U.S. government's official web portal to all federal, state and local government web resources and services.